Change the Weather History Date:

Wednesday, October 16, 2013

  Actual Average (KGGG) Record (KGGG)
Temperature  
Mean Temperature 62 °F 66 °F  
Max Temperature 65 °F 78 °F 94 °F (1938)
Min Temperature 58 °F 54 °F 36 °F (1952)
Degree Days  
Heating Degree Days 4 2  
Month to date heating degree days 23  
Since 1 July heating degree days 29  
Cooling Degree Days 0 3  
Month to date cooling degree days 75  
Year to date cooling degree days 2354  
Growing Degree Days 12 (Base 50)    
Moisture  
Dew Point 61 °F    
Average Humidity 92    
Maximum Humidity 93    
Minimum Humidity 90    
Precipitation  
Precipitation 0.79 in 0.15 in 2.70 in (1919)
Month to date precipitation 2.40  
Year to date precipitation 36.39  
Snow  
Snow 0.00 in - - ()
Month to date snowfall  
Since 1 July snowfall  
Since 1 September snowfall  
Snow Depth -    
Sea Level Pressure  
Sea Level Pressure 30.02 in    
Wind  
Wind Speed 3 mph (North)    
Max Wind Speed 8 mph    
Max Gust Speed -    
Visibility 6 miles    
Events      
T = Trace of Precipitation, MM = Missing Value Source: NWS Daily Summary

Daily Weather History Graph

Daily Weather History Graph

Search for Another Location

Airport or City:

Trip Planner

Search our weather history database for the weather conditions in past years. The results will help you decide how hot, cold, wet, or windy it might be!

Date:

Astronomy

Oct. 16, 2013 Rise Set
Actual Time 7:22 AM CDT 6:42 PM CDT
Civil Twilight 6:57 AM CDT 7:07 PM CDT
Nautical Twilight 6:28 AM CDT 7:36 PM CDT
Astronomical Twilight 6:00 AM CDT 8:04 PM CDT
Moon 5:17 PM CDT (10/16) 4:57 AM CDT (10/16)
Length of Visible Light 12h 10m
Length of Day
11h 20m
Waxing Gibbous, 94% of the Moon is Illuminated
Oct 16
Waxing Gibbous
Oct 18
Full
Oct 26
Last Quarter
Nov 3
New
Nov 9
First Quarter

Hourly Weather History & Observations

Time (CDT) Temp. Dew Point Humidity Pressure Visibility Wind Dir Wind Speed Gust Speed Precip Events Conditions
12:15 AM 65.7 °F 63.1 °F 92% 30.00 in 1.0 mi North 3.5 mph - 0.12 in   Mostly Cloudy
12:35 AM 65.7 °F 63.5 °F 93% 29.99 in 2.0 mi Calm Calm - 0.26 in   Overcast
12:55 AM 65.7 °F 63.5 °F 93% 29.99 in 1.5 mi North 3.5 mph - 0.40 in   Mostly Cloudy
1:15 AM 65.7 °F 63.5 °F 93% 29.99 in 5.0 mi NNW 3.5 mph - 0.02 in   Mostly Cloudy
1:35 AM 65.7 °F 63.5 °F 93% 30.00 in 4.0 mi NNW 3.5 mph - 0.03 in   Overcast
1:55 AM 65.7 °F 63.5 °F 93% 29.99 in 3.0 mi North 4.6 mph - 0.05 in   Unknown
2:15 AM 65.7 °F 63.5 °F 93% 29.98 in 4.0 mi Calm Calm - 0.02 in   Clear
2:35 AM 65.7 °F 63.5 °F 93% 29.97 in 7.0 mi Calm Calm - 0.03 in   Mostly Cloudy
2:55 AM 65.7 °F 63.5 °F 93% 29.96 in 5.0 mi Calm Calm - 0.04 in   Mostly Cloudy
3:15 AM 65.7 °F 63.5 °F 93% 29.96 in 5.0 mi Calm Calm - 0.03 in   Scattered Clouds
3:35 AM 65.7 °F 63.5 °F 93% 29.97 in 10.0 mi Calm Calm - 0.04 in   Mostly Cloudy
3:55 AM 65.7 °F 63.5 °F 93% 29.96 in 7.0 mi Calm Calm - 0.05 in   Overcast
4:15 AM 65.7 °F 63.5 °F 93% 29.96 in 10.0 mi Calm Calm - N/A   Overcast
4:35 AM 65.7 °F 63.5 °F 93% 29.96 in 7.0 mi Calm Calm - N/A   Overcast
4:55 AM 65.7 °F 63.5 °F 93% 29.96 in 7.0 mi North 3.5 mph - 0.01 in   Overcast
5:15 AM 65.7 °F 63.5 °F 93% 29.97 in 10.0 mi NNW 5.8 mph - N/A   Overcast
5:35 AM 65.7 °F 63.5 °F 93% 29.99 in 10.0 mi NNW 8.1 mph - N/A   Overcast
5:55 AM 65.7 °F 63.5 °F 93% 30.00 in 5.0 mi NNW 8.1 mph - 0.01 in   Overcast
6:15 AM 65.7 °F 63.5 °F 93% 30.00 in 5.0 mi North 4.6 mph - 0.01 in   Overcast
6:35 AM 65.7 °F 63.5 °F 93% 30.01 in 4.0 mi North 4.6 mph - 0.06 in   Mostly Cloudy
6:55 AM 65.7 °F 63.5 °F 93% 30.02 in 7.0 mi North 4.6 mph - 0.07 in   Mostly Cloudy
7:15 AM 65.7 °F 63.5 °F 93% 30.03 in 10.0 mi NNW 3.5 mph - 0.01 in   Mostly Cloudy
7:35 AM 65.7 °F 63.3 °F 92% 30.01 in 7.0 mi East 3.5 mph - 0.01 in   Overcast
7:55 AM 65.7 °F 63.5 °F 93% 30.01 in 2.5 mi North 4.6 mph - 0.06 in   Overcast
8:15 AM 65.7 °F 63.5 °F 93% 30.02 in 4.0 mi Calm Calm - 0.02 in   Clear
8:35 AM 65.7 °F 63.5 °F 93% 30.02 in 10.0 mi NNE 4.6 mph - 0.02 in   Mostly Cloudy
8:55 AM 65.7 °F 63.5 °F 93% 30.02 in 10.0 mi North 3.5 mph - 0.03 in   Overcast
9:15 AM 65.5 °F 63.0 °F 92% 30.04 in 7.0 mi North 6.9 mph - N/A   Overcast
9:35 AM 64.2 °F 61.7 °F 91% 30.05 in 7.0 mi Calm Calm - 0.01 in   Overcast
9:55 AM 63.1 °F 60.8 °F 92% 30.05 in 7.0 mi NNW 3.5 mph - 0.02 in   Overcast
10:15 AM 63.1 °F 60.8 °F 92% 30.05 in 1.8 mi NW 5.8 mph - 0.01 in   Overcast
10:35 AM 63.1 °F 60.6 °F 91% 30.06 in 2.0 mi NNW 5.8 mph - 0.02 in   Overcast
10:55 AM 63.1 °F 60.8 °F 92% 30.06 in 3.0 mi NNW 6.9 mph - 0.03 in   Overcast
11:15 AM 61.3 °F 59.0 °F 92% 30.05 in 1.8 mi NNW 6.9 mph - N/A   Overcast
11:35 AM 61.7 °F 59.2 °F 91% 30.05 in 2.0 mi North 5.8 mph - N/A   Overcast
11:55 AM 63.1 °F 60.8 °F 92% 30.05 in 2.5 mi North 6.9 mph - N/A   Overcast
12:15 PM 63.1 °F 60.8 °F 92% 30.04 in 3.0 mi North 8.1 mph - N/A   Overcast
12:35 PM 63.1 °F 60.8 °F 92% 30.04 in 5.0 mi North 6.9 mph - N/A   Overcast
12:55 PM 63.1 °F 60.8 °F 92% 30.03 in 10.0 mi NNE 5.8 mph - N/A   Overcast
1:15 PM 63.1 °F 60.8 °F 92% 30.04 in 3.0 mi NNE 4.6 mph - N/A   Overcast
1:35 PM 63.1 °F 60.4 °F 91% 30.02 in 10.0 mi North 6.9 mph - N/A   Overcast
1:55 PM 63.1 °F 60.4 °F 91% 30.02 in 10.0 mi North 4.6 mph - N/A   Overcast
2:15 PM 62.8 °F 60.1 °F 91% 30.01 in 10.0 mi North 8.1 mph - N/A   Overcast
2:35 PM 63.1 °F 60.3 °F 90% 30.00 in 10.0 mi NNE 5.8 mph - N/A   Overcast
2:55 PM 63.1 °F 60.1 °F 90% 30.00 in 10.0 mi NE 3.5 mph - N/A   Overcast
3:15 PM 63.1 °F 60.1 °F 90% 30.00 in 10.0 mi NNE 5.8 mph - N/A   Overcast
3:35 PM 63.1 °F 60.1 °F 90% 30.00 in 10.0 mi Calm Calm - N/A   Overcast
3:55 PM 63.1 °F 60.1 °F 90% 30.00 in 10.0 mi Calm Calm - N/A   Overcast
4:15 PM 63.1 °F 60.1 °F 90% 30.00 in 10.0 mi North 4.6 mph - N/A   Overcast
4:35 PM 63.1 °F 60.3 °F 90% 30.00 in 10.0 mi Calm Calm - N/A   Overcast
4:55 PM 63.1 °F 60.1 °F 90% 29.99 in 10.0 mi NNE 4.6 mph - N/A   Overcast
5:15 PM 61.9 °F 59.0 °F 90% 30.00 in 10.0 mi North 3.5 mph - N/A   Overcast
5:35 PM 63.0 °F 59.9 °F 90% 30.00 in 10.0 mi Calm Calm - N/A   Overcast
5:55 PM 63.1 °F 60.1 °F 90% 30.00 in 10.0 mi North 3.5 mph - N/A   Overcast
6:15 PM 62.1 °F 59.0 °F 90% 30.01 in 10.0 mi North 3.5 mph - N/A   Overcast
6:35 PM 63.0 °F 59.9 °F 90% 30.01 in 10.0 mi Calm Calm - N/A   Overcast
6:55 PM 60.8 °F 57.7 °F 90% 30.01 in 5.0 mi North 3.5 mph - N/A   Overcast
7:15 PM 60.8 °F 58.1 °F 91% 30.02 in 3.0 mi North 3.5 mph - N/A   Overcast
7:35 PM 60.8 °F 58.1 °F 91% 30.02 in 3.0 mi North 3.5 mph - N/A   Overcast
7:55 PM 60.8 °F 58.3 °F 91% 30.03 in 4.0 mi North 4.6 mph - 0.01 in   Mostly Cloudy
8:15 PM 60.8 °F 58.3 °F 91% 30.04 in 4.0 mi Calm Calm - N/A   Overcast
8:35 PM 60.8 °F 58.3 °F 91% 30.04 in 4.0 mi North 3.5 mph - N/A   Overcast
8:55 PM 60.8 °F 58.3 °F 91% 30.05 in 5.0 mi North 3.5 mph - N/A   Overcast
9:15 PM 60.8 °F 58.3 °F 91% 30.05 in 3.0 mi North 4.6 mph - N/A   Overcast
9:35 PM 60.8 °F 58.3 °F 91% 30.05 in 3.0 mi Calm Calm - N/A   Overcast
9:55 PM 60.8 °F 58.3 °F 91% 30.06 in 4.0 mi NNW 6.9 mph - N/A   Overcast
10:15 PM 59.4 °F 57.2 °F 93% 30.06 in 3.0 mi NNW 5.8 mph - N/A   Overcast
10:35 PM 59.0 °F 56.3 °F 91% 30.05 in 5.0 mi North 4.6 mph - N/A   Overcast
10:55 PM 59.0 °F 56.3 °F 91% 30.05 in 10.0 mi NNW 5.8 mph - N/A   Overcast
11:15 PM 58.1 °F 55.8 °F 92% 30.05 in 2.0 mi NNW 5.8 mph - 0.01 in   Overcast
11:35 PM 58.1 °F 55.8 °F 92% 30.05 in 3.0 mi NNW 5.8 mph - 0.01 in   Overcast
11:55 PM 58.1 °F 55.8 °F 92% 30.05 in 7.0 mi NNW 5.8 mph - 0.01 in   Overcast